Time,TemperatureF,DewpointF,PressureIn,WindDirection,WindDirectionDegrees,WindSpeedMPH,WindSpeedGustMPH,Humidity,HourlyPrecipIn,Conditions,Clouds,dailyrainin,SoftwareType,DateUTC
2013-07-24 00:00:00,77.4,72.2,24.02,West,270,0.0,0.0,84,0.00,,,0.00,VWS V13.01,2013-07-24 04:00:00,
2013-07-24 01:00:00,76.1,71.6,24.02,West,270,0.0,5.0,86,0.00,,,0.00,VWS V13.01,2013-07-24 05:00:00,
2013-07-24 02:00:00,75.3,71.5,24.02,West,270,0.0,5.0,88,0.00,,,0.00,VWS V13.01,2013-07-24 06:00:00,
2013-07-24 03:00:00,74.4,71.3,24.02,West,270,0.0,5.0,90,0.00,,,0.00,VWS V13.01,2013-07-24 07:00:00,
2013-07-24 04:00:00,73.5,70.7,24.02,West,270,0.0,1.0,91,0.00,,,0.00,VWS V13.01,2013-07-24 08:00:00,
2013-07-24 05:00:00,72.8,69.7,24.02,West,270,0.0,5.0,90,0.00,,,0.00,VWS V13.01,2013-07-24 09:00:00,
2013-07-24 06:00:00,72.0,68.9,24.02,West,270,0.0,5.0,90,0.00,,,0.00,VWS V13.01,2013-07-24 10:00:00,
2013-07-24 07:00:00,71.6,68.2,24.02,West,270,0.0,2.0,89,0.00,,,0.00,VWS V13.01,2013-07-24 11:00:00,
2013-07-24 08:00:00,74.1,67.5,24.02,West,270,0.0,4.0,80,0.00,,,0.00,VWS V13.01,2013-07-24 12:00:00,
2013-07-24 09:00:00,78.3,68.1,24.02,WNW,292,0.0,6.0,71,0.00,,,0.00,VWS V13.01,2013-07-24 13:00:00,
2013-07-24 10:00:00,80.9,69.8,24.02,WNW,292,0.0,5.0,69,0.00,,,0.00,VWS V13.01,2013-07-24 14:00:00,
2013-07-24 11:00:00,81.2,70.1,24.02,WNW,292,0.0,8.0,69,0.00,,,0.00,VWS V13.01,2013-07-24 15:00:00,
2013-07-24 12:00:00,82.8,71.2,24.02,WNW,292,0.0,7.0,68,0.00,,,0.00,VWS V13.01,2013-07-24 16:00:00,
2013-07-24 13:00:00,80.3,68.8,24.02,WNW,292,1.0,8.0,68,0.00,,,0.00,VWS V13.01,2013-07-24 17:00:00,
2013-07-24 14:00:00,81.9,68.1,24.02,NW,315,0.0,6.0,63,0.00,,,0.00,VWS V13.01,2013-07-24 18:00:00,
2013-07-24 15:00:00,82.1,68.7,24.02,WNW,292,1.0,8.0,64,0.00,,,0.00,VWS V13.01,2013-07-24 19:00:00,
2013-07-24 16:00:00,81.6,67.8,24.02,West,270,0.0,7.0,63,0.00,,,0.00,VWS V13.01,2013-07-24 20:00:00,
2013-07-24 17:00:00,81.1,66.4,24.02,WNW,292,0.0,4.0,61,0.00,,,0.00,VWS V13.01,2013-07-24 21:00:00,
2013-07-24 18:00:00,81.8,65.6,24.02,West,270,0.0,4.0,58,0.00,,,0.00,VWS V13.01,2013-07-24 22:00:00,
2013-07-24 19:00:00,80.9,64.2,24.02,NW,315,0.0,5.0,57,0.00,,,0.00,VWS V13.01,2013-07-24 23:00:00,
2013-07-24 20:00:00,78.0,62.5,24.02,NW,315,0.0,5.0,59,0.00,,,0.00,VWS V13.01,2013-07-25 00:00:00,
2013-07-24 21:00:00,75.3,60.9,24.02,NW,315,0.0,6.0,61,0.00,,,0.00,VWS V13.01,2013-07-25 01:00:00,
2013-07-24 22:00:00,72.7,60.3,24.02,NW,315,0.0,7.0,65,0.00,,,0.00,VWS V13.01,2013-07-25 02:00:00,
2013-07-24 23:00:00,70.3,58.8,24.02,NW,315,1.0,6.0,67,0.00,,,0.00,VWS V13.01,2013-07-25 03:00:00,